Location: Arroyo Grande
(40.2671°N, 4.2512°W)
Time: 15:41:07
(UTC+00:00)

ADEOS - Pass Details

Date: 03 February 2023
Orbit: 792 x 793 km, 98.9° (Epoch: 22 March)

Event Time Altitude Azimuth Distance (km) Brightness Sun altitude
Rises 18:20:01 0° 176° (S) 3,278 6.9 -8.5°
Reaches altitude 10° 18:22:23 10° 180° (S) 2,352 6.2 -9.0°
Maximum altitude 18:27:29 57° 259° (WSW) 929 4.4 -9.9°
Drops below altitude 10° 18:32:38 10° 338° (NNW) 2,368 6.2 -10.9°
Sets 18:35:01 0° 342° (NNW) 3,301 6.9 -11.3°
